Flag for Germany Weather for the Past 2 Weeks in Georgsmarienhütte, Lower Saxony, Germany

Now
66 °F

Passing clouds.


Feels Like: 66 °F
Forecast: 48 / 72 °F
Wind: 8 mph from Southeast

Location: Muenster / Osnabrueck

Current Time: May 5, 2016 at 6:43:30 PM

Latest Report: May 5, 2016 at 6:20 PM


Visibility: N/A

Pressure: 30.15 "Hg

Humidity: 37%

Dew Point: 39 °F

Location of GeorgsmarienhütteLocation

Historic Weather in Georgsmarienhütte — Graph

°F

Georgsmarienhütte Temperature Yesterday

Maximum temperature yesterday: 59 °F (at 3:50 PM)
Minimum temperature yesterday: 34 °F (at 5:50 AM)
Average temperature yesterday: 48 °F

High & Low Weather Summary for the Past Weeks

 TemperatureHumidityPressure
High66 °F (May 2, 2:50 PM)100% (Apr 22, 4:50 AM)30.42 "Hg (Apr 22, 4:50 AM)
Low32 °F (Apr 25, 2:20 AM)31% (Apr 21, 6:20 PM)29.42 "Hg (Apr 26, 8:20 AM)
Average46 °F72%30.03 "Hg
* Reported Apr 20 5:20 PM — May 5 5:20 PM, Georgsmarienhütte, Weather by CustomWeather, © 2016

Note: Actual official high and low records may vary slightly from our data, if they occured in-between our weather recording intervals... More about our weather records

Advertising

Georgsmarienhütte Weather History for the Previous 24 Hours

Scroll right to see more
 ConditionsComfort  
Time TempWeatherWind HumidityBarometerVisibility
5:20 PM
Thu, May 5
66 °FSunny.7 mph37%30.18 "Hg10 mi
4:50 PM66 °FPassing clouds.8 mph37%30.21 "HgN/A
4:20 PM64 °FPassing clouds.10 mph40%30.21 "HgN/A
3:50 PM64 °FPassing clouds.12 mph40%30.21 "HgN/A
3:20 PM64 °FPassing clouds.10 mph34%30.24 "HgN/A
2:50 PM64 °FPassing clouds.8 mph40%30.24 "HgN/A
2:20 PM64 °FPassing clouds.8 mph43%30.24 "HgN/A
1:50 PM64 °FPassing clouds.7 mph40%30.27 "HgN/A
1:20 PM63 °FPassing clouds.10 mph39%30.27 "HgN/A
12:50 PM63 °FSunny.7 mph39%30.30 "Hg10 mi
12:20 PM61 °FPassing clouds.8 mph39%30.30 "HgN/A
11:50 AM61 °FPassing clouds.10 mph42%30.30 "HgN/A
11:20 AM59 °FPassing clouds.12 mph39%30.33 "HgN/A
10:50 AM57 °FPassing clouds.10 mph41%30.33 "HgN/A
10:20 AM57 °FPassing clouds.7 mph44%30.33 "HgN/A
9:50 AM55 °FPassing clouds.6 mph51%30.33 "HgN/A
9:20 AM54 °FPassing clouds.7 mph54%30.36 "HgN/A
8:50 AM52 °FPassing clouds.6 mph54%30.36 "HgN/A
8:20 AM50 °FPassing clouds.6 mph58%30.36 "HgN/A
7:50 AM48 °FPassing clouds.5 mph58%30.36 "HgN/A
7:20 AM46 °FPassing clouds.3 mph62%30.36 "HgN/A
6:50 AM45 °FPassing clouds.5 mph61%30.36 "HgN/A
6:20 AM41 °FFog.3 mph70%30.36 "HgN/A
5:50 AM37 °FClear.2 mph87%30.36 "Hg10 mi
5:20 AM41 °FClear.2 mph70%30.36 "Hg10 mi
4:50 AM39 °FClear.2 mph81%30.36 "Hg10 mi
4:20 AM41 °FPassing clouds.3 mph70%30.36 "HgN/A
3:50 AM41 °FPassing clouds.3 mph70%30.36 "HgN/A
3:20 AM41 °FPassing clouds.3 mph76%30.36 "HgN/A
2:50 AM39 °FClear.2 mph81%30.36 "Hg10 mi
2:20 AM41 °FClear.3 mph81%30.36 "Hg10 mi
1:50 AM43 °FPassing clouds.3 mph76%30.36 "HgN/A
1:20 AM41 °FClear.2 mph81%30.36 "Hg10 mi
12:50 AM45 °FClear.2 mph66%30.36 "Hg10 mi
12:20 AM46 °FPassing clouds.3 mph62%30.36 "HgN/A
11:50 PM
Wed, May 4
46 °FClear.2 mph62%30.36 "Hg10 mi
11:20 PM48 °FPassing clouds.3 mph58%30.36 "HgN/A
10:50 PM45 °FClear.2 mph71%30.36 "Hg10 mi
10:20 PM48 °FClear.2 mph62%30.36 "Hg10 mi
9:50 PM50 °FSunny.2 mph50%30.36 "Hg10 mi
9:20 PM52 °FSunny.2 mph47%30.36 "Hg10 mi
8:50 PM54 °FSunny.2 mph41%30.36 "Hg10 mi
8:20 PM55 °FSunny.2 mph38%30.36 "Hg10 mi
7:50 PM57 °FPassing clouds.5 mph36%30.36 "HgN/A
7:20 PM57 °FPassing clouds.3 mph39%30.36 "HgN/A
6:50 PM59 °FPassing clouds.3 mph39%30.36 "HgN/A
6:20 PM57 °FSunny.2 mph39%30.36 "Hg10 mi
Weather by CustomWeather, © 2016

See weather overviewHow to use our weather pages